Location: Gadern
(49.5873°N, 8.8138°E)
Time: 06:40:05
(UTC+00:00)

Cosmos 1743 - Pass Details

Date: 19 May 2025
Orbit: 431 x 441 km, 82.5° (Epoch: 22 June)

Event Time Altitude Azimuth Distance (km) Brightness Sun altitude
Rises 20:14:38 0° 347° (NNW) 2,460 7.3 -9.1°
Reaches altitude 10° 20:16:43 10° 345° (NNW) 1,582 6.3 -9.3°
Maximum altitude 20:20:08 64° 263° (W) 499 2.8 -9.7°
Drops below altitude 10° 20:23:30 10° 182° (S) 1,561 4.7 -10.1°
Enters shadow 20:23:54 - 181° (S) 1,724 4.9 -10.1°
